McAllen, TX

4:57 PM CST on November 24, 2017 (GMT -0600)
McAllen Miller International

Weather History for KMFE - February, 2013

Change the Weather History Date:

Friday, February 1, 2013

  Actual Average Record
Temperature  
Mean Temperature 66 °F 62 °F  
Max Temperature 75 °F 73 °F 92 °F (1963)
Min Temperature 56 °F 52 °F 32 °F (1985)
Degree Days  
Heating Degree Days 0 5  
Month to date heating degree days 0 5  
Since 1 July heating degree days 269 432  
Cooling Degree Days 1 2  
Month to date cooling degree days 1 2  
Year to date cooling degree days 89 64  
Growing Degree Days 14 (Base 50)    
Moisture  
Dew Point 48 °F    
Average Humidity 56    
Maximum Humidity 77    
Minimum Humidity 35    
Precipitation  
Precipitation T in 0.05 in 0.73 in (2001)
Month to date precipitation T 0.05  
Year to date precipitation 0.98 1.10  
Sea Level Pressure  
Sea Level Pressure 30.25 in    
Wind  
Wind Speed 10 mph (ESE)    
Max Wind Speed 18 mph    
Max Gust Speed 24 mph    
Visibility 10 miles    
Events      
T = Trace of Precipitation, MM = Missing Value Source: NWS Daily Summary

Daily Weather History Graph

Daily Weather History Graph

Search for Another Location

Airport or City:

Trip Planner

Search our weather history database for the weather conditions in past years. The results will help you decide how hot, cold, wet, or windy it might be!

Date:

Astronomy

Feb. 01, 2013 Rise Set
Actual Time 7:17 AM CST 6:16 PM CST
Civil Twilight 6:53 AM CST 6:40 PM CST
Nautical Twilight 6:25 AM CST 7:08 PM CST
Astronomical Twilight 5:58 AM CST 7:35 PM CST
Moon 11:42 PM CST (2/1) 10:30 AM CST (2/1)
Length of Visible Light 11h 47m
Length of Day
10h 59m
Waning Gibbous, 70% of the Moon is Illuminated
Feb 1
Waning Gibbous
Feb 3
Last Quarter
Feb 10
New
Feb 17
First Quarter
Feb 25
Full

Hourly Weather History & Observations

Time (CST) Temp. Dew Point Humidity Pressure Visibility Wind Dir Wind Speed Gust Speed Precip Events Conditions
12:53 AM 55.9 °F 44.1 °F 64% 30.26 in 10.0 mi East 6.9 mph - N/A   Clear
1:53 AM 57.0 °F 45.0 °F 64% 30.27 in 10.0 mi ESE 8.1 mph - N/A   Clear
2:53 AM 57.0 °F 46.0 °F 67% 30.25 in 10.0 mi ESE 9.2 mph - N/A   Clear
3:53 AM 57.0 °F 46.9 °F 69% 30.25 in 10.0 mi East 8.1 mph - N/A   Clear
4:53 AM 57.0 °F 46.9 °F 69% 30.26 in 10.0 mi East 6.9 mph - N/A   Clear
5:53 AM 57.0 °F 48.0 °F 72% 30.27 in 10.0 mi East 8.1 mph - N/A   Clear
6:53 AM 55.9 °F 48.0 °F 75% 30.29 in 10.0 mi East 8.1 mph - N/A   Clear
7:53 AM 57.2 °F 48.2 °F 72% 30.30 in 10.0 mi East 8.1 mph - N/A   Clear
8:53 AM 62.1 °F 50.0 °F 65% 30.31 in 10.0 mi East 9.2 mph - N/A   Clear
9:53 AM 68.0 °F 50.0 °F 52% 30.32 in 10.0 mi East 15.0 mph - N/A   Clear
10:53 AM 70.0 °F 50.0 °F 49% 30.31 in 10.0 mi East 11.5 mph - N/A   Overcast
11:53 AM 73.0 °F 50.0 °F 44% 30.30 in 10.0 mi East 10.4 mph - N/A   Mostly Cloudy
12:53 PM 73.0 °F 46.9 °F 39% 30.27 in 10.0 mi ESE 8.1 mph - N/A   Overcast
1:53 PM 73.4 °F 44.6 °F 36% 30.23 in 10.0 mi SE 9.2 mph 18.4 mph N/A   Overcast
2:53 PM 72.0 °F 44.1 °F 37% 30.21 in 10.0 mi SE 11.5 mph - N/A   Overcast
3:53 PM 72.0 °F 46.0 °F 40% 30.19 in 10.0 mi SE 16.1 mph - N/A   Overcast
4:53 PM 71.1 °F 46.0 °F 41% 30.19 in 10.0 mi SE 15.0 mph - N/A   Overcast
5:53 PM 69.1 °F 46.9 °F 45% 30.19 in 10.0 mi SSE 10.4 mph - N/A   Mostly Cloudy
6:53 PM 66.0 °F 46.9 °F 50% 30.20 in 10.0 mi SE 9.2 mph - N/A   Partly Cloudy
7:53 PM 66.0 °F 46.9 °F 50% 30.21 in 10.0 mi ESE 9.2 mph - N/A   Mostly Cloudy
8:53 PM 66.0 °F 48.9 °F 54% 30.23 in 10.0 mi ESE 8.1 mph - N/A   Overcast
9:53 PM 64.9 °F 50.0 °F 58% 30.22 in 10.0 mi SE 10.4 mph - N/A   Overcast
10:53 PM 64.9 °F 51.1 °F 61% 30.22 in 10.0 mi ESE 9.2 mph - N/A   Overcast
11:53 PM 64.0 °F 52.0 °F 65% 30.20 in 10.0 mi ESE 8.1 mph - N/A   Overcast